[[{"header":{"parameterUnit":"m.s-1","parameterCategory":1,"la1":30.2991,"la2":30.254,"lo1":-89.0895,"lo2":-89.0444,"dy":0.0017,"dx":0.0017,"nx":28,"ny":28,"refTime":"2024-07-06T21:00:00:Z","depth":0,"parameterNumber":2,"parameterNumberName":"U-component_of_WINDS"},"data":[0,0,0,0,0,0,0,0,0,0,0,0,0,0,0,0,0,0,0,0,0,0,0,0,0,0,0,0,0,0,0,0,0,0,0,0,0,0,0,0,0,0,0,0,0,0,0,0,0,0,0,0,0,0,0,0,0,0,1.687,1.6872,0,1.7058,1.706,1.7062,1.7143,1.7142,1.7142,1.7142,1.7335,1.7341,1.7346,0,0,0,0,0,0,0,0,0,0,0,0,0,1.6581,1.6586,1.6869,1.6872,1.6874,1.7057,1.706,1.7063,1.7143,1.7142,1.7142,1.7141,1.7334,1.734,1.7347,0,0,0,0,0,0,0,0,0,0,0,0,0,1.6732,1.6588,1.6869,1.6936,1.6944,1.7057,1.706,1.7063,1.7143,1.7142,1.7142,1.7141,1.7331,1.7339,1.7348,1.7408,0,0,1.7373,1.7376,0,0,0,0,0,0,0,0,1.6723,1.6742,1.6924,1.6932,1.6941,1.7076,1.703,1.7179,1.7143,1.7067,1.7142,1.7141,1.725,1.7265,1.7301,1.7417,1.7425,1.7373,1.7378,1.7382,1.7384,0,0,0,0,0,0,0,1.6713,1.6735,1.6944,1.6927,1.6937,1.6958,1.6978,1.7058,1.7159,1.7074,1.708,1.7101,1.7254,1.7293,1.7306,1.7428,1.7373,1.738,1.7385,1.7389,1.7605,1.7606,0,0,0,0,0,0,1.6691,1.6725,1.6938,1.695,1.6828,1.6963,1.6986,1.7033,1.7158,1.7177,1.7101,1.7104,1.7279,1.7296,1.7313,1.7393,1.7382,1.7389,1.7394,1.7604,1.7605,1.7606,0,0,0,0,0,0,1.6684,1.6709,1.693,1.6839,1.6869,1.6969,1.7021,1.7037,1.7076,1.7179,1.7198,1.7122,1.7279,1.7302,1.7384,1.7401,1.7393,1.7401,1.7603,1.7605,1.7606,1.7552,0,0,0,0,0,0,1.6676,1.6706,1.673,1.6839,1.6874,1.6997,1.7022,1.7041,1.709,1.7095,1.7204,1.7221,1.7281,1.7371,1.7392,1.7412,1.7407,1.7602,1.7604,1.7605,1.7553,1.7552,1.755,0,0,0,0,0,1.6665,1.6707,1.673,1.6756,1.6905,1.6998,1.7018,1.7085,1.7091,1.7116,1.7182,1.7218,1.7396,1.7379,1.7403,1.7426,1.7601,1.7603,1.7605,1.7554,1.7552,1.755,0,0,0,0,0,0,1.6597,1.6723,1.675,1.6828,1.6902,1.7011,1.7045,1.7081,1.7155,1.7157,1.7238,1.7261,1.7337,1.739,1.7369,1.7492,1.7502,1.7508,1.7454,1.7453,1.7452,1.7438,1.7414,0,0,0,0,0,1.6591,1.6656,1.6762,1.6821,1.6857,1.6944,1.6987,1.7033,1.7112,1.7144,1.7217,1.7293,1.7366,1.7413,1.7486,1.7561,1.7587,1.7589,1.7587,1.7586,1.7591,1.7636,1.7638,1.7612,1.7612,1.7612,0,0,1.6579,1.6656,1.6692,1.681,1.6872,1.6938,1.697,1.7038,1.7088,1.7155,1.7237,1.7293,1.7384,1.7463,1.7501,1.7509,1.7604,1.7588,1.7586,1.7592,1.7638,1.764,1.7642,1.7614,1.7613,1.7613,0,0,1.6592,1.6656,1.6713,1.6775,1.6869,1.6927,1.694,1.7045,1.7085,1.7169,1.722,1.7281,1.7406,1.7468,1.7516,1.7554,1.759,1.7576,1.7569,1.7611,1.7613,1.7616,1.763,1.7633,1.758,1.758,1.758,0,1.6566,1.6667,1.6738,1.6803,1.6854,1.6917,1.6976,1.7033,1.7146,1.7179,1.7187,1.7345,1.741,1.7505,1.7515,1.7551,1.757,1.7564,1.7607,1.761,1.7613,1.7628,1.7633,1.7578,1.7578,1.7578,1.7579,0,1.663,1.6699,1.6734,1.6842,1.6896,1.6958,1.7039,1.7086,1.7127,1.7184,1.7269,1.735,1.7441,1.7467,1.7508,1.7569,1.7571,1.7591,1.7603,1.7612,1.7627,1.7633,1.7574,1.7575,1.7576,1.7577,0,0,1.6604,1.6751,1.6763,1.6813,1.6922,1.6977,1.7042,1.7131,1.717,1.7246,1.7303,1.7407,1.7427,1.7482,1.753,1.7568,1.7593,1.7584,1.7588,1.7583,1.7666,1.765,1.7655,1.7618,1.7619,1.762,1.7659,0,1.6632,1.6751,1.6817,1.6909,1.6974,1.7036,1.7093,1.7166,1.7222,1.7286,1.7348,1.742,1.7441,1.7475,1.7514,1.7581,1.7611,1.758,1.7672,1.7675,1.7647,1.7663,1.7646,1.7678,1.7665,1.7666,1.7667,0,1.668,1.6755,1.6853,1.6955,1.6985,1.7035,1.7123,1.7183,1.7268,1.7306,1.7367,1.7415,1.7487,1.7493,1.7594,1.7571,1.7613,1.7652,1.7655,1.7666,1.7671,1.7674,1.769,1.7694,1.7676,1.7676,1.7675,0,1.6652,1.6778,1.6853,1.6894,1.7015,1.7049,1.7101,1.7185,1.7235,1.7311,1.7344,1.7428,1.7474,1.7538,1.7608,1.7606,1.7702,1.7714,1.7737,1.7735,1.7754,1.7752,1.7776,1.778,1.778,1.778,1.778,0,1.6676,1.6734,1.6842,1.6888,1.6955,1.7031,1.7095,1.7152,1.7227,1.7286,1.7344,1.7398,1.7488,1.7553,1.7609,1.7684,1.7704,1.7738,1.7752,1.7733,1.7728,1.7761,1.7761,1.7782,1.7781,1.7781,1.7781,0,1.6656,1.6731,1.6817,1.6925,1.6953,1.6998,1.709,1.7138,1.7197,1.7271,1.7292,1.7385,1.7465,1.7542,1.7649,1.7687,1.7762,1.778,1.7733,1.7741,1.7759,1.7756,1.7806,1.7816,1.7812,1.7812,1.7812,0,1.6667,1.6712,1.6825,1.6869,1.692,1.6989,1.704,1.7117,1.7168,1.7268,1.7304,1.7388,1.746,1.7585,1.7663,1.7746,1.7766,1.7778,1.7779,1.7759,1.7767,1.7764,1.7769,1.7776,1.7776,1.7776,1.7775,0,1.6678,1.6712,1.6783,1.6867,1.6927,1.6997,1.7069,1.7101,1.7192,1.7246,1.7329,1.7384,1.7494,1.7577,1.7669,1.7724,1.7765,1.7774,1.7784,1.7765,1.7736,1.7752,1.7729,1.7773,1.7773,1.7773,1.7774,1.7774,1.6674,1.6718,1.6804,1.6881,1.6944,1.701,1.706,1.7125,1.7195,1.729,1.7332,1.7415,1.75,1.7628,1.7682,1.7749,1.7759,1.7772,1.7776,1.7778,1.7774,1.7725,1.7766,1.7766,1.7766,1.7767,1.7767,0,1.6688,1.6747,1.6817,1.6916,1.6977,1.701,1.7092,1.7141,1.7214,1.7289,1.7359,1.7454,1.7536,1.7619,1.7706,1.7743,1.7764,1.7763,1.7762,1.7774,1.7761,1.7744,1.7745,1.7745,1.7745,1.7745,1.7745,1.7745,1.6703,1.6779,1.6824,1.6932,1.6991,1.7073,1.7117,1.7179,1.7239,1.7343,1.7411,1.7465,1.7544,1.7637,1.7713,1.7736,1.7765,1.7759,1.7787,1.7773,1.7774,1.7776,1.776,1.7765,1.7765,1.7795,1.7795,1.7795]},{"header":{"parameterUnit":"m.s-1","parameterCategory":1,"la1":30.2991,"la2":30.254,"lo1":-89.0895,"lo2":-89.0444,"dy":0.0017,"dx":0.0017,"nx":28,"ny":28,"refTime":"2024-07-06T21:00:00:Z","depth":0,"parameterNumber":3,"parameterNumberName":"V-component_of_WINDS"},"data":[0,0,0,0,0,0,0,0,0,0,0,0,0,0,0,0,0,0,0,0,0,0,0,0,0,0,0,0,0,0,0,0,0,0,0,0,0,0,0,0,0,0,0,0,0,0,0,0,0,0,0,0,0,0,0,0,0,0,1.2694,1.2694,0,1.2753,1.2753,1.2754,1.2751,1.2751,1.275,1.2749,1.2808,1.281,1.2812,0,0,0,0,0,0,0,0,0,0,0,0,0,1.2575,1.2577,1.2693,1.2694,1.2695,1.2752,1.2753,1.2754,1.2752,1.2751,1.275,1.2749,1.2807,1.281,1.2812,0,0,0,0,0,0,0,0,0,0,0,0,0,1.2629,1.2578,1.2693,1.2701,1.2702,1.2752,1.2753,1.2754,1.2752,1.2751,1.2749,1.2748,1.2806,1.2809,1.2813,1.2859,0,0,1.2824,1.2825,0,0,0,0,0,0,0,0,1.2626,1.2634,1.2699,1.27,1.2702,1.2743,1.2733,1.2789,1.2752,1.2733,1.2749,1.2748,1.2787,1.2792,1.2806,1.2862,1.2865,1.2824,1.2826,1.2828,1.2829,0,0,0,0,0,0,0,1.2622,1.2631,1.2717,1.27,1.2702,1.27,1.2706,1.2744,1.2766,1.2734,1.2734,1.2741,1.2788,1.2803,1.2807,1.2865,1.2824,1.2827,1.2829,1.283,1.2959,1.296,0,0,0,0,0,0,1.2617,1.2628,1.2715,1.2719,1.266,1.2703,1.271,1.2731,1.2766,1.277,1.2742,1.2741,1.2797,1.2803,1.2809,1.2864,1.2827,1.2831,1.2833,1.2958,1.2959,1.2961,0,0,0,0,0,0,1.2615,1.2625,1.2713,1.2673,1.2684,1.2706,1.273,1.2733,1.2748,1.2772,1.2776,1.2754,1.2796,1.2804,1.2846,1.2866,1.2832,1.2836,1.2956,1.2958,1.296,1.2975,0,0,0,0,0,0,1.2612,1.2624,1.2643,1.2674,1.2686,1.275,1.2731,1.2735,1.2754,1.2753,1.2783,1.2787,1.2796,1.2841,1.285,1.287,1.2838,1.2955,1.2957,1.296,1.2973,1.2978,1.2982,0,0,0,0,0,1.2607,1.2646,1.2644,1.2655,1.2711,1.2751,1.2758,1.2768,1.2756,1.2774,1.2789,1.2786,1.2862,1.2845,1.2855,1.2877,1.2953,1.2956,1.2959,1.2971,1.2977,1.2981,0,0,0,0,0,0,1.2618,1.265,1.2649,1.2699,1.2722,1.2751,1.2775,1.2774,1.2801,1.2799,1.2809,1.2816,1.2857,1.2871,1.2852,1.2922,1.2906,1.2911,1.2912,1.2917,1.2921,1.2917,1.2841,0,0,0,0,0,1.2625,1.2656,1.2683,1.2724,1.2736,1.2753,1.2771,1.2776,1.2801,1.2811,1.2829,1.2852,1.2881,1.29,1.2928,1.2975,1.298,1.2994,1.2999,1.3002,1.3006,1.303,1.3036,1.2971,1.2971,1.2971,0,0,1.2643,1.2664,1.2683,1.2726,1.2745,1.2775,1.2761,1.2795,1.2817,1.2816,1.2856,1.287,1.2896,1.294,1.296,1.2953,1.3025,1.3006,1.3008,1.3011,1.3033,1.3039,1.3045,1.2973,1.2972,1.2972,0,0,1.2689,1.2709,1.2744,1.2763,1.2791,1.2802,1.281,1.2838,1.2847,1.2888,1.2887,1.2912,1.2963,1.2981,1.2997,1.3046,1.3044,1.3055,1.3076,1.3099,1.3104,1.3109,1.3125,1.3131,1.3059,1.3059,1.3059,0,1.2706,1.2753,1.2762,1.2796,1.2814,1.2813,1.2847,1.2865,1.2901,1.2913,1.2904,1.2965,1.2983,1.303,1.3041,1.3055,1.3063,1.3052,1.3103,1.3108,1.3112,1.3128,1.3134,1.306,1.306,1.306,1.306,0,1.2772,1.2804,1.2829,1.2864,1.2884,1.2918,1.2931,1.295,1.2953,1.2964,1.3003,1.3024,1.3056,1.3067,1.307,1.3114,1.3108,1.3101,1.3085,1.3119,1.3134,1.314,1.3061,1.3061,1.3061,1.306,0,0,1.283,1.2866,1.2875,1.2889,1.2919,1.2943,1.2976,1.3006,1.3022,1.3046,1.3072,1.3113,1.3106,1.3123,1.3128,1.3148,1.3183,1.3138,1.3139,1.3145,1.3231,1.3236,1.3243,1.3182,1.3183,1.3184,1.3228,0,1.2878,1.2937,1.2944,1.2995,1.3024,1.3022,1.3049,1.307,1.308,1.3104,1.3115,1.3144,1.3133,1.3143,1.3163,1.3175,1.3201,1.3172,1.3205,1.3206,1.3199,1.3251,1.3257,1.3298,1.3234,1.3235,1.3236,0,1.2944,1.2969,1.3023,1.3046,1.3058,1.3083,1.311,1.3134,1.3156,1.3161,1.318,1.3181,1.3212,1.3194,1.3237,1.3217,1.323,1.3238,1.324,1.3244,1.3224,1.3255,1.3312,1.3318,1.3245,1.3245,1.3244,0,1.2979,1.3026,1.3063,1.3076,1.3104,1.3121,1.3134,1.3154,1.3171,1.3194,1.3205,1.3231,1.3245,1.3265,1.3272,1.3259,1.3313,1.3297,1.3318,1.3318,1.3331,1.333,1.3389,1.3339,1.3339,1.3339,1.3339,0,1.3033,1.3065,1.3079,1.3102,1.3138,1.3145,1.318,1.3191,1.3209,1.3233,1.3232,1.3255,1.3263,1.3286,1.3292,1.3325,1.3332,1.3337,1.3338,1.3337,1.3336,1.3346,1.3344,1.3341,1.334,1.334,1.334,0,1.3078,1.3089,1.313,1.3152,1.3158,1.3183,1.3202,1.3224,1.3232,1.3263,1.327,1.3284,1.3311,1.332,1.3353,1.3356,1.3395,1.3394,1.3388,1.3388,1.3409,1.3406,1.3477,1.3486,1.343,1.3431,1.3431,0,1.3112,1.3137,1.3162,1.3178,1.3191,1.3217,1.3233,1.324,1.3257,1.3282,1.33,1.3327,1.3349,1.3391,1.3404,1.3428,1.3427,1.345,1.3431,1.3428,1.3427,1.3425,1.3427,1.3454,1.3454,1.3455,1.3455,0,1.3171,1.3174,1.3199,1.3224,1.3244,1.3264,1.3284,1.3297,1.3306,1.3325,1.3352,1.3369,1.3401,1.3427,1.3452,1.3463,1.346,1.3461,1.3467,1.3467,1.3462,1.3464,1.3397,1.346,1.3459,1.3459,1.3459,1.3458,1.3211,1.3232,1.3252,1.3279,1.3294,1.3311,1.3332,1.3342,1.3366,1.3393,1.3395,1.3424,1.3442,1.3474,1.3486,1.3508,1.3502,1.3511,1.3513,1.3515,1.3517,1.3458,1.3513,1.3513,1.3512,1.3512,1.3512,0,1.3269,1.3281,1.3305,1.3332,1.3352,1.3347,1.3368,1.3385,1.341,1.3428,1.3448,1.3479,1.3503,1.3516,1.354,1.3555,1.3554,1.3561,1.356,1.3562,1.3522,1.3514,1.3561,1.3561,1.3561,1.3561,1.3561,1.3561,1.3302,1.3337,1.3342,1.3383,1.3394,1.3423,1.3435,1.345,1.3464,1.3498,1.3518,1.3526,1.3541,1.3565,1.3586,1.3589,1.3598,1.3605,1.3608,1.357,1.3565,1.356,1.3553,1.3607,1.3607,1.3646,1.3646,1.3647]}]]